Ketchikan, AK

8:51 AM AKDT on October 16, 2018 (GMT -0800)
Ketchikan International

Weather History for PAKT - October, 2018

Change the Weather History Date:

Sunday, October 14, 2018

  Actual Average Record
Temperature  
Mean Temperature 46 °F -  
Max Temperature 51 °F 52 °F 62 °F (1963)
Min Temperature 41 °F 40 °F 25 °F (1992)
Degree Days  
Heating Degree Days 19    
Moisture  
Dew Point 42 °F    
Average Humidity 91    
Maximum Humidity 100    
Minimum Humidity 76    
Precipitation  
Precipitation 0.00 in - - ()
Sea Level Pressure  
Sea Level Pressure 30.34 in    
Wind  
Wind Speed 6 mph (SE)    
Max Wind Speed 12 mph    
Max Gust Speed -    
Visibility 6 miles    
Events Fog    
Averages and records for this station are not official NWS values.
T = Trace of Precipitation, MM = Missing Value Source: NWS Daily Summary

Daily Weather History Graph

Daily Weather History Graph

Search for Another Location

Airport or City:

Astronomy

Oct. 14, 2018 Rise Set
Actual Time 7:15 AM AKDT 5:49 PM AKDT
Civil Twilight 6:38 AM AKDT 6:26 PM AKDT
Nautical Twilight 5:56 AM AKDT 7:08 PM AKDT
Astronomical Twilight 5:13 AM AKDT 7:50 PM AKDT
Moon 1:33 PM AKDT (10/14) 9:17 PM AKDT (10/14)
Length of Visible Light 11h 47m
Length of Day
10h 33m
Waxing Crescent, 32% of the Moon is Illuminated
Oct 14
Waxing Crescent
Oct 16
First Quarter
Oct 24
Full
Oct 31
Last Quarter
Nov 7
New

Hourly Weather History & Observations

Time (AKDT) Temp. Windchill Dew Point Humidity Pressure Visibility Wind Dir Wind Speed Gust Speed Precip Events Conditions
12:53 AM 43.0 °F 38.8 °F 41.0 °F 93% 30.35 in 10.0 mi SE 6.9 mph - N/A   Clear
1:53 AM 41.0 °F - 39.9 °F 96% 30.35 in 10.0 mi Calm Calm - N/A   Clear
2:30 AM 43.0 °F 39.5 °F 41.0 °F 93% 30.34 in 10.0 mi SE 5.8 mph - N/A   Partly Cloudy
2:43 AM 42.1 °F 39.2 °F 41.0 °F 96% 30.34 in 2.0 mi SE 4.6 mph - N/A   Scattered Clouds
2:53 AM 42.1 °F 38.4 °F 41.0 °F 96% 30.35 in 6.0 mi SE 5.8 mph - N/A   Partly Cloudy
3:14 AM 41.0 °F 38.0 °F 41.0 °F 100% 30.34 in 1.5 mi South 4.6 mph - N/A   Scattered Clouds
3:17 AM 41.0 °F 38.0 °F 39.9 °F 96% 30.34 in 0.8 mi South 4.6 mph - N/A   Mist
3:38 AM 42.1 °F 38.4 °F 39.9 °F 92% 30.35 in 2.0 mi South 5.8 mph - N/A   Overcast
3:45 AM 42.1 °F 39.2 °F 39.9 °F 92% 30.34 in 10.0 mi SE 4.6 mph - N/A   Overcast
3:53 AM 42.1 °F 38.4 °F 41.0 °F 96% 30.35 in 1.2 mi SE 5.8 mph - N/A   Overcast
4:09 AM 42.1 °F 38.4 °F 41.0 °F 96% 30.34 in 0.5 mi SE 5.8 mph - N/A Fog Fog
4:15 AM 41.0 °F 38.0 °F 39.9 °F 96% 30.34 in 1.0 mi SE 4.6 mph - N/A   Mist
4:22 AM 41.0 °F 38.0 °F 39.9 °F 96% 30.34 in 3.0 mi SE 4.6 mph - N/A   Mostly Cloudy
4:30 AM 41.0 °F 37.1 °F 39.9 °F 96% 30.34 in 1.5 mi SE 5.8 mph - N/A   Overcast
4:38 AM 41.0 °F 38.0 °F 39.9 °F 96% 30.34 in 0.5 mi SE 4.6 mph - N/A Fog Fog
4:48 AM 42.8 °F 40.1 °F 39.2 °F 87% 30.33 in 0.2 mi SE 4.6 mph - N/A Fog Fog
4:53 AM 42.1 °F 39.2 °F 41.0 °F 96% 30.34 in 0.2 mi SE 4.6 mph - N/A Fog Fog
4:59 AM 42.1 °F 37.1 °F 41.0 °F 96% 30.33 in 0.5 mi SE 8.1 mph - N/A Fog Fog
5:07 AM 42.1 °F 36.6 °F 41.0 °F 96% 30.34 in 2.0 mi SE 9.2 mph - N/A   Mostly Cloudy
5:14 AM 43.0 °F 37.7 °F 41.0 °F 93% 30.33 in 10.0 mi SE 9.2 mph - N/A   Mostly Cloudy
5:31 AM 42.1 °F 37.7 °F 41.0 °F 96% 30.33 in 4.0 mi ESE 6.9 mph - N/A   Scattered Clouds
5:53 AM 41.0 °F 35.8 °F 39.9 °F 96% 30.33 in 9.0 mi ESE 8.1 mph - N/A   Partly Cloudy
6:04 AM 42.1 °F 37.1 °F 39.9 °F 92% 30.33 in 7.0 mi ESE 8.1 mph - N/A   Scattered Clouds
6:53 AM 42.8 °F 38.0 °F 41.0 °F 93% 30.34 in 0.8 mi ESE 8.1 mph - N/A   Overcast
7:53 AM 44.6 °F 41.4 °F 42.8 °F 93% 30.34 in 2.0 mi SE 5.8 mph - N/A   Overcast
8:27 AM 44.6 °F 40.2 °F 42.8 °F 93% 30.33 in 6.0 mi SE 8.1 mph - N/A   Overcast
8:53 AM 44.6 °F 40.2 °F 42.8 °F 93% 30.34 in 10.0 mi SE 8.1 mph - N/A   Overcast
9:53 AM 46.4 °F 41.9 °F 44.6 °F 93% 30.35 in 10.0 mi SE 9.2 mph - N/A   Overcast
10:53 AM 46.4 °F 41.9 °F 44.6 °F 93% 30.35 in 10.0 mi ESE 9.2 mph - N/A   Overcast
11:53 AM 48.2 °F - 44.6 °F 87% 30.36 in 10.0 mi SE 9.2 mph - N/A   Overcast
12:53 PM 48.2 °F - 42.8 °F 82% 30.36 in 10.0 mi SSE 6.9 mph - N/A   Overcast
1:53 PM 50.0 °F - 42.8 °F 76% 30.36 in 10.0 mi SE 6.9 mph - N/A   Overcast
2:53 PM 50.0 °F - 44.6 °F 82% 30.35 in 10.0 mi SSE 4.6 mph - N/A   Overcast
3:53 PM 50.0 °F - 44.6 °F 82% 30.34 in 10.0 mi SSE 9.2 mph - N/A   Overcast
4:53 PM 50.0 °F - 44.6 °F 82% 30.34 in 10.0 mi Variable 3.5 mph - N/A   Overcast
5:53 PM 50.0 °F - 44.6 °F 82% 30.33 in 10.0 mi South 5.8 mph - N/A   Overcast
6:53 PM 50.0 °F - 46.4 °F 87% 30.34 in 10.0 mi South 5.8 mph - N/A   Overcast
7:53 PM 51.8 °F - 44.6 °F 76% 30.32 in 10.0 mi SE 11.5 mph - N/A   Mostly Cloudy
8:53 PM 50.0 °F - 46.4 °F 87% 30.32 in 10.0 mi Variable 5.8 mph - N/A   Mostly Cloudy
9:53 PM 48.0 °F - 45.0 °F 89% 30.33 in 10.0 mi SE 5.8 mph - N/A   Mostly Cloudy
10:00 PM 48.0 °F - 45.0 °F 89% 30.32 in 10.0 mi SSE 6.9 mph - N/A   Partly Cloudy
10:53 PM 46.9 °F - 44.1 °F 90% 30.32 in 10.0 mi SSE 5.8 mph - N/A   Clear
11:53 PM 48.0 °F - 44.1 °F 86% 30.32 in 10.0 mi SSE 6.9 mph - N/A   Clear